Quick links : Home Page : Contact Us : Index : Site Map : Search Site : Ephemerides


(163454) 2002 RN129

Orbital Elements

The following orbital elements are taken from MPO123438
(163454) 2002 RN129
Epoch 2007 Oct. 27.0 TT = JDT 2454400.5                 MPC
M 219.34540              (2000.0)            P               Q
n   0.78683688     Peri.  198.52306     -0.97493145     -0.12608134
a   1.1620182      Node   332.17430     +0.21865808     -0.69544931
e   0.3697864      Incl.   23.12666     -0.04119849     -0.70742756
P   1.25           H   18.9           G   0.15           U   3
From 75 observations at 4 oppositions, 2002-2007, mean residual 0".51.
An explanation of the orbital elements is available.

These orbital elements are also available in forms suitable for loading into a number of popular planetarium-type software programs.


Ephemeris

The following ephemeris is at intervals of five days. A daily ephemeris covering the same time interval is also available.

Personalized ephemerides for this (and other) objects may be generated using the Minor Planet & Comet Ephemeris Service.

Date    TT    R. A. (2000) Decl.     Delta      r     Elong.  Phase     V
2008 08 22    17 04.34   -47 03.8    0.615    1.341   108.6    45.6    20.2
2008 08 27    17 22.80   -43 53.5    0.660    1.364   107.6    44.9    20.4
2008 09 01    17 39.02   -40 58.1    0.709    1.386   106.2    44.4    20.6
2008 09 06    17 53.61   -38 17.6    0.760    1.406   104.5    43.9    20.7
2008 09 11    18 07.00   -35 50.9    0.813    1.426   102.6    43.5    20.9
 
2009 08 27    11 55.86   -13 02.5    1.479    0.834    32.8    41.0    21.0

Back to Observable Critical-List Minor Planets

MPC

Valid HTML 4.01!